Time,TemperatureF,DewpointF,PressureIn,WindDirection,WindDirectionDegrees,WindSpeedMPH,WindSpeedGustMPH,Humidity,HourlyPrecipIn,Conditions,Clouds,dailyrainin,SolarRadiationWatts/m^2,SoftwareType,DateUTC
2013-09-29 00:03:00,67.8,36.9,30.10,NW,307,1.0,4.0,32,0.00,,,0.00,0.0,meteohub,2013-09-29 07:03:00,
2013-09-29 00:08:00,67.6,37.6,30.10,NW,307,1.0,4.0,33,0.00,,,0.00,0.0,meteohub,2013-09-29 07:08:00,
2013-09-29 00:13:00,67.3,37.2,30.10,NW,307,0.0,4.0,33,0.00,,,0.00,0.0,meteohub,2013-09-29 07:13:00,
2013-09-29 00:18:00,66.9,36.9,30.10,NW,307,2.0,2.0,33,0.00,,,0.00,0.0,meteohub,2013-09-29 07:18:00,
2013-09-29 00:23:00,67.1,37.0,30.10,NW,307,1.0,3.0,33,0.00,,,0.00,0.0,meteohub,2013-09-29 07:23:00,
2013-09-29 00:28:00,66.9,36.9,30.11,NW,307,0.0,3.0,33,0.00,,,0.00,0.0,meteohub,2013-09-29 07:28:00,
2013-09-29 00:33:00,66.7,36.7,30.10,NW,307,1.0,2.0,33,0.00,,,0.00,0.0,meteohub,2013-09-29 07:33:00,
2013-09-29 00:38:00,66.6,37.4,30.10,NW,307,1.0,2.0,34,0.00,,,0.00,0.0,meteohub,2013-09-29 07:38:00,
2013-09-29 00:43:00,66.4,36.3,30.10,NW,307,1.0,2.0,33,0.00,,,0.00,0.0,meteohub,2013-09-29 07:43:00,
2013-09-29 00:48:00,66.6,36.5,30.11,NW,307,0.0,2.0,33,0.00,,,0.00,0.0,meteohub,2013-09-29 07:48:00,
2013-09-29 00:53:00,66.6,37.4,30.11,NW,307,0.0,2.0,34,0.00,,,0.00,0.0,meteohub,2013-09-29 07:53:00,
2013-09-29 00:58:00,66.2,37.0,30.11,NW,307,0.0,2.0,34,0.00,,,0.00,0.0,meteohub,2013-09-29 07:58:00,
2013-09-29 01:03:00,65.7,37.2,30.11,NW,307,1.0,2.0,35,0.00,,,0.00,0.0,meteohub,2013-09-29 08:03:00,
2013-09-29 01:08:00,64.9,36.7,30.11,NW,307,0.0,1.0,35,0.00,,,0.00,0.0,meteohub,2013-09-29 08:08:00,
2013-09-29 01:13:00,64.2,37.4,30.11,NW,307,0.0,2.0,37,0.00,,,0.00,0.0,meteohub,2013-09-29 08:13:00,
2013-09-29 01:18:00,63.7,37.6,30.11,NW,307,0.0,2.0,38,0.00,,,0.00,0.0,meteohub,2013-09-29 08:18:00,
2013-09-29 01:23:00,63.3,37.2,30.11,NW,307,0.0,2.0,38,0.00,,,0.00,0.0,meteohub,2013-09-29 08:23:00,
2013-09-29 01:28:00,63.1,37.0,30.11,NW,307,1.0,1.0,38,0.00,,,0.00,0.0,meteohub,2013-09-29 08:28:00,
2013-09-29 01:33:00,63.0,37.0,30.11,NW,307,1.0,1.0,38,0.00,,,0.00,0.0,meteohub,2013-09-29 08:33:00,
2013-09-29 01:38:00,63.0,37.0,30.11,NW,307,1.0,2.0,38,0.00,,,0.00,0.0,meteohub,2013-09-29 08:38:00,
2013-09-29 01:43:00,63.0,37.0,30.11,NW,307,0.0,2.0,38,0.00,,,0.00,0.0,meteohub,2013-09-29 08:43:00,
2013-09-29 01:48:00,63.0,37.0,30.11,NW,307,0.0,2.0,38,0.00,,,0.00,0.0,meteohub,2013-09-29 08:48:00,
2013-09-29 01:53:00,63.0,37.6,30.11,NW,307,1.0,1.0,39,0.00,,,0.00,0.0,meteohub,2013-09-29 08:53:00,
2013-09-29 01:58:00,63.1,37.0,30.11,NW,307,1.0,2.0,38,0.00,,,0.00,0.0,meteohub,2013-09-29 08:58:00,
2013-09-29 02:03:00,63.5,36.7,30.11,NW,307,1.0,2.0,37,0.00,,,0.00,0.0,meteohub,2013-09-29 09:03:00,
2013-09-29 02:08:00,63.7,36.9,30.11,NW,307,1.0,2.0,37,0.00,,,0.00,0.0,meteohub,2013-09-29 09:08:00,
2013-09-29 02:13:00,63.7,37.6,30.11,NW,307,1.0,2.0,38,0.00,,,0.00,0.0,meteohub,2013-09-29 09:13:00,
2013-09-29 02:18:00,63.7,37.6,30.11,NW,307,1.0,2.0,38,0.00,,,0.00,0.0,meteohub,2013-09-29 09:18:00,
2013-09-29 02:23:00,63.5,37.4,30.11,NW,307,1.0,2.0,38,0.00,,,0.00,0.0,meteohub,2013-09-29 09:23:00,
2013-09-29 02:28:00,63.3,37.2,30.11,NW,307,0.0,1.0,38,0.00,,,0.00,0.0,meteohub,2013-09-29 09:28:00,
2013-09-29 02:33:00,63.1,37.8,30.11,NW,307,1.0,1.0,39,0.00,,,0.00,0.0,meteohub,2013-09-29 09:33:00,
2013-09-29 02:38:00,62.6,38.5,30.10,NW,307,1.0,2.0,41,0.00,,,0.00,0.0,meteohub,2013-09-29 09:38:00,
2013-09-29 02:43:00,62.1,38.7,30.10,NW,307,0.0,2.0,42,0.00,,,0.00,0.0,meteohub,2013-09-29 09:43:00,
2013-09-29 02:48:00,61.5,37.6,30.10,NW,307,0.0,2.0,41,0.00,,,0.00,0.0,meteohub,2013-09-29 09:48:00,
2013-09-29 02:53:00,61.2,38.5,30.10,NW,307,0.0,1.0,43,0.00,,,0.00,0.0,meteohub,2013-09-29 09:53:00,
2013-09-29 02:58:00,61.0,38.3,30.10,NW,307,0.0,1.0,43,0.00,,,0.00,0.0,meteohub,2013-09-29 09:58:00,
2013-09-29 03:03:00,60.8,37.6,30.10,NW,307,1.0,1.0,42,0.00,,,0.00,0.0,meteohub,2013-09-29 10:03:00,
2013-09-29 03:08:00,61.0,38.3,30.10,NW,307,0.0,1.0,43,0.00,,,0.00,0.0,meteohub,2013-09-29 10:08:00,
2013-09-29 03:13:00,60.8,37.6,30.10,NW,307,0.0,1.0,42,0.00,,,0.00,0.0,meteohub,2013-09-29 10:13:00,
2013-09-29 03:19:00,60.4,38.5,30.10,NW,307,0.0,1.0,44,0.00,,,0.00,0.0,meteohub,2013-09-29 10:19:00,
2013-09-29 03:24:00,60.3,38.3,30.10,NW,307,0.0,1.0,44,0.00,,,0.00,0.0,meteohub,2013-09-29 10:24:00,
2013-09-29 03:29:00,59.9,37.9,30.10,NW,307,0.0,1.0,44,0.00,,,0.00,0.0,meteohub,2013-09-29 10:29:00,
2013-09-29 03:34:00,59.5,38.1,30.10,NW,307,0.0,1.0,45,0.00,,,0.00,0.0,meteohub,2013-09-29 10:34:00,
2013-09-29 03:39:00,59.2,37.2,30.10,NW,307,0.0,1.0,44,0.00,,,0.00,0.0,meteohub,2013-09-29 10:39:00,
2013-09-29 03:44:00,58.8,37.0,30.10,NW,307,0.0,1.0,44,0.00,,,0.00,0.0,meteohub,2013-09-29 10:44:00,
2013-09-29 03:49:00,58.6,37.9,30.10,NW,307,0.0,1.0,46,0.00,,,0.00,0.0,meteohub,2013-09-29 10:49:00,
2013-09-29 03:54:00,58.5,38.3,30.10,NW,307,0.0,1.0,47,0.00,,,0.00,0.0,meteohub,2013-09-29 10:54:00,
2013-09-29 03:59:00,58.1,37.9,30.10,NW,307,1.0,1.0,47,0.00,,,0.00,0.0,meteohub,2013-09-29 10:59:00,
2013-09-29 04:05:00,58.1,37.9,30.10,NW,307,1.0,1.0,47,0.00,,,0.00,0.0,meteohub,2013-09-29 11:05:00,
2013-09-29 04:10:00,58.1,37.9,30.10,NW,307,0.0,1.0,47,0.00,,,0.00,0.0,meteohub,2013-09-29 11:10:00,
2013-09-29 04:15:00,58.1,37.9,30.10,NW,307,0.0,2.0,47,0.00,,,0.00,0.0,meteohub,2013-09-29 11:15:00,
2013-09-29 04:20:00,57.9,37.8,30.10,NW,307,0.0,2.0,47,0.00,,,0.00,0.0,meteohub,2013-09-29 11:20:00,
2013-09-29 04:26:00,57.7,38.1,30.10,NW,307,0.0,1.0,48,0.00,,,0.00,0.0,meteohub,2013-09-29 11:26:00,
2013-09-29 04:31:00,57.7,38.1,30.10,NW,307,0.0,1.0,48,0.00,,,0.00,0.0,meteohub,2013-09-29 11:31:00,
2013-09-29 04:36:00,57.6,38.5,30.11,NW,307,0.0,1.0,49,0.00,,,0.00,0.0,meteohub,2013-09-29 11:36:00,
2013-09-29 04:41:00,57.4,38.3,30.11,NW,307,0.0,1.0,49,0.00,,,0.00,0.0,meteohub,2013-09-29 11:41:00,
2013-09-29 04:46:00,57.0,38.5,30.11,NW,307,0.0,1.0,50,0.00,,,0.00,0.0,meteohub,2013-09-29 11:46:00,
2013-09-29 04:51:00,56.8,38.5,30.11,NW,307,0.0,1.0,50,0.00,,,0.00,0.0,meteohub,2013-09-29 11:51:00,
2013-09-29 04:56:00,56.7,38.7,30.11,NW,307,0.0,1.0,51,0.00,,,0.00,0.0,meteohub,2013-09-29 11:56:00,
2013-09-29 05:01:00,56.3,38.5,30.11,NW,307,0.0,1.0,51,0.00,,,0.00,0.0,meteohub,2013-09-29 12:01:00,
2013-09-29 05:06:00,56.1,38.7,30.12,NW,307,0.0,1.0,52,0.00,,,0.00,0.0,meteohub,2013-09-29 12:06:00,
2013-09-29 05:11:00,55.9,39.0,30.12,NW,307,0.0,1.0,53,0.00,,,0.00,0.0,meteohub,2013-09-29 12:11:00,
2013-09-29 05:16:00,55.9,38.5,30.12,NW,307,0.0,1.0,52,0.00,,,0.00,0.0,meteohub,2013-09-29 12:16:00,
2013-09-29 05:21:00,55.8,38.5,30.12,NW,307,0.0,1.0,52,0.00,,,0.00,0.0,meteohub,2013-09-29 12:21:00,
2013-09-29 05:26:00,55.8,38.5,30.12,NW,307,0.0,1.0,52,0.00,,,0.00,0.0,meteohub,2013-09-29 12:26:00,
2013-09-29 05:31:00,55.8,37.9,30.12,NW,307,0.0,1.0,51,0.00,,,0.00,0.0,meteohub,2013-09-29 12:31:00,
2013-09-29 05:36:00,55.9,38.5,30.13,NW,307,0.0,1.0,52,0.00,,,0.00,0.0,meteohub,2013-09-29 12:36:00,
2013-09-29 05:41:00,55.9,38.5,30.12,NW,307,1.0,1.0,52,0.00,,,0.00,0.0,meteohub,2013-09-29 12:41:00,
2013-09-29 05:46:00,55.9,38.5,30.13,NW,307,0.0,1.0,52,0.00,,,0.00,0.0,meteohub,2013-09-29 12:46:00,
2013-09-29 05:51:00,55.8,38.8,30.12,NW,307,0.0,2.0,53,0.00,,,0.00,0.0,meteohub,2013-09-29 12:51:00,
2013-09-29 05:56:00,55.8,37.9,30.12,NW,307,0.0,2.0,51,0.00,,,0.00,0.0,meteohub,2013-09-29 12:56:00,
2013-09-29 06:01:00,55.8,37.9,30.13,NW,307,0.0,1.0,51,0.00,,,0.00,0.0,meteohub,2013-09-29 13:01:00,
2013-09-29 06:06:00,55.8,38.5,30.13,NW,307,0.0,2.0,52,0.00,,,0.00,0.0,meteohub,2013-09-29 13:06:00,
2013-09-29 06:12:00,55.6,38.3,30.13,NW,307,1.0,2.0,52,0.00,,,0.00,0.0,meteohub,2013-09-29 13:12:00,
2013-09-29 06:17:00,55.4,38.1,30.13,NW,307,0.0,2.0,52,0.00,,,0.00,5.0,meteohub,2013-09-29 13:17:00,
2013-09-29 06:22:00,55.2,38.8,30.13,NW,307,0.0,1.0,54,0.00,,,0.00,9.0,meteohub,2013-09-29 13:22:00,
2013-09-29 06:27:00,55.0,38.3,30.13,NW,307,1.0,1.0,53,0.00,,,0.00,12.0,meteohub,2013-09-29 13:27:00,
2013-09-29 06:32:00,54.9,38.1,30.13,NW,307,0.0,1.0,53,0.00,,,0.00,16.0,meteohub,2013-09-29 13:32:00,
2013-09-29 06:37:00,54.7,38.8,30.13,NW,307,0.0,1.0,55,0.00,,,0.00,18.0,meteohub,2013-09-29 13:37:00,
2013-09-29 06:42:00,54.7,38.8,30.13,NW,307,0.0,1.0,55,0.00,,,0.00,32.0,meteohub,2013-09-29 13:42:00,
2013-09-29 06:47:00,55.0,39.2,30.14,NW,307,0.0,1.0,55,0.00,,,0.00,42.0,meteohub,2013-09-29 13:47:00,
2013-09-29 06:52:00,55.8,39.9,30.14,NW,307,0.0,0.0,55,0.00,,,0.00,54.0,meteohub,2013-09-29 13:52:00,
2013-09-29 06:57:00,56.7,40.6,30.14,NW,307,0.0,0.0,55,0.00,,,0.00,72.0,meteohub,2013-09-29 13:57:00,
2013-09-29 07:02:00,57.7,41.7,30.14,NW,307,0.0,1.0,55,0.00,,,0.00,90.0,meteohub,2013-09-29 14:02:00,
2013-09-29 07:07:00,59.2,42.6,30.14,NW,307,0.0,1.0,54,0.00,,,0.00,111.0,meteohub,2013-09-29 14:07:00,
2013-09-29 07:12:00,60.6,43.3,30.14,NW,307,0.0,1.0,53,0.00,,,0.00,132.0,meteohub,2013-09-29 14:12:00,
2013-09-29 07:17:00,62.2,44.4,30.14,NW,307,0.0,0.0,52,0.00,,,0.00,155.0,meteohub,2013-09-29 14:17:00,
2013-09-29 07:22:00,64.0,42.8,30.14,NW,307,0.0,0.0,46,0.00,,,0.00,176.0,meteohub,2013-09-29 14:22:00,
2013-09-29 07:27:00,65.8,40.1,30.14,NW,307,0.0,0.0,39,0.00,,,0.00,197.0,meteohub,2013-09-29 14:27:00,
2013-09-29 07:32:00,67.3,40.1,30.14,NW,307,1.0,1.0,37,0.00,,,0.00,214.0,meteohub,2013-09-29 14:32:00,
2013-09-29 07:37:00,68.4,40.3,30.14,NW,307,0.0,1.0,36,0.00,,,0.00,234.0,meteohub,2013-09-29 14:37:00,
2013-09-29 07:42:00,69.4,40.6,30.15,NW,307,1.0,1.0,35,0.00,,,0.00,251.0,meteohub,2013-09-29 14:42:00,
2013-09-29 07:47:00,69.8,40.1,30.15,NW,307,0.0,1.0,34,0.00,,,0.00,267.0,meteohub,2013-09-29 14:47:00,
2013-09-29 07:52:00,70.3,41.4,30.15,NW,307,0.0,1.0,35,0.00,,,0.00,285.0,meteohub,2013-09-29 14:52:00,
2013-09-29 07:57:00,71.1,39.7,30.15,NW,307,0.0,1.0,32,0.00,,,0.00,302.0,meteohub,2013-09-29 14:57:00,
2013-09-29 08:02:00,72.0,39.7,30.15,NW,307,0.0,1.0,31,0.00,,,0.00,322.0,meteohub,2013-09-29 15:02:00,
2013-09-29 08:08:00,72.7,39.4,30.15,NW,307,0.0,1.0,30,0.00,,,0.00,339.0,meteohub,2013-09-29 15:08:00,
2013-09-29 08:13:00,73.2,39.9,30.15,NW,307,0.0,1.0,30,0.00,,,0.00,357.0,meteohub,2013-09-29 15:13:00,
2013-09-29 08:18:00,73.2,40.8,30.15,NW,307,2.0,2.0,31,0.00,,,0.00,376.0,meteohub,2013-09-29 15:18:00,
2013-09-29 08:23:00,73.0,40.6,30.15,NW,307,1.0,2.0,31,0.00,,,0.00,394.0,meteohub,2013-09-29 15:23:00,
2013-09-29 08:28:00,73.0,40.6,30.15,NW,307,1.0,3.0,31,0.00,,,0.00,411.0,meteohub,2013-09-29 15:28:00,
2013-09-29 08:33:00,73.0,40.6,30.15,WSW,246,2.0,3.0,31,0.00,,,0.00,429.0,meteohub,2013-09-29 15:33:00,
2013-09-29 08:38:00,73.6,40.3,30.15,West,269,2.0,3.0,30,0.00,,,0.00,441.0,meteohub,2013-09-29 15:38:00,
2013-09-29 08:43:00,73.9,40.5,30.15,West,269,1.0,3.0,30,0.00,,,0.00,457.0,meteohub,2013-09-29 15:43:00,
2013-09-29 08:48:00,74.5,40.1,30.15,West,269,2.0,3.0,29,0.00,,,0.00,476.0,meteohub,2013-09-29 15:48:00,
2013-09-29 08:53:00,74.7,39.4,30.15,West,269,1.0,4.0,28,0.00,,,0.00,492.0,meteohub,2013-09-29 15:53:00,
2013-09-29 08:58:00,75.0,39.7,30.15,West,263,2.0,4.0,28,0.00,,,0.00,510.0,meteohub,2013-09-29 15:58:00,
2013-09-29 09:03:00,75.4,40.1,30.15,WSW,250,1.0,4.0,28,0.00,,,0.00,526.0,meteohub,2013-09-29 16:03:00,
2013-09-29 09:08:00,75.9,40.5,30.15,WSW,240,3.0,3.0,28,0.00,,,0.00,536.0,meteohub,2013-09-29 16:08:00,
2013-09-29 09:13:00,76.3,41.7,30.15,SSW,206,3.0,3.0,29,0.00,,,0.00,557.0,meteohub,2013-09-29 16:13:00,
2013-09-29 09:18:00,76.5,41.9,30.15,West,264,2.0,4.0,29,0.00,,,0.00,566.0,meteohub,2013-09-29 16:18:00,
2013-09-29 09:23:00,76.3,40.8,30.15,SW,224,1.0,4.0,28,0.00,,,0.00,584.0,meteohub,2013-09-29 16:23:00,
2013-09-29 09:28:00,76.3,40.8,30.15,SSW,205,2.0,4.0,28,0.00,,,0.00,598.0,meteohub,2013-09-29 16:28:00,
2013-09-29 09:33:00,76.6,41.2,30.15,West,274,2.0,5.0,28,0.00,,,0.00,613.0,meteohub,2013-09-29 16:33:00,
2013-09-29 09:38:00,76.8,39.4,30.15,West,267,1.0,5.0,26,0.00,,,0.00,628.0,meteohub,2013-09-29 16:38:00,
2013-09-29 09:43:00,77.4,39.7,30.15,West,270,0.0,5.0,26,0.00,,,0.00,640.0,meteohub,2013-09-29 16:43:00,
2013-09-29 09:48:00,78.1,39.4,30.15,WSW,249,0.0,5.0,25,0.00,,,0.00,654.0,meteohub,2013-09-29 16:48:00,
2013-09-29 09:53:00,78.3,39.6,30.15,NW,309,1.0,5.0,25,0.00,,,0.00,666.0,meteohub,2013-09-29 16:53:00,
2013-09-29 09:58:00,78.8,39.9,30.14,WSW,256,3.0,4.0,25,0.00,,,0.00,679.0,meteohub,2013-09-29 16:58:00,
2013-09-29 10:03:00,78.6,39.9,30.14,SSW,210,2.0,5.0,25,0.00,,,0.00,689.0,meteohub,2013-09-29 17:03:00,
2013-09-29 10:08:00,79.0,40.1,30.14,SSW,213,2.0,5.0,25,0.00,,,0.00,701.0,meteohub,2013-09-29 17:08:00,
2013-09-29 10:13:00,79.2,40.3,30.14,SW,220,1.0,6.0,25,0.00,,,0.00,714.0,meteohub,2013-09-29 17:13:00,
2013-09-29 10:18:00,79.5,40.6,30.14,SW,223,3.0,6.0,25,0.00,,,0.00,724.0,meteohub,2013-09-29 17:18:00,
2013-09-29 10:23:00,79.9,39.9,30.14,SW,219,3.0,6.0,24,0.00,,,0.00,735.0,meteohub,2013-09-29 17:23:00,
2013-09-29 10:28:00,80.1,40.1,30.14,WSW,249,2.0,4.0,24,0.00,,,0.00,744.0,meteohub,2013-09-29 17:28:00,
2013-09-29 10:33:00,80.6,39.4,30.14,SSW,201,2.0,5.0,23,0.00,,,0.00,756.0,meteohub,2013-09-29 17:33:00,
2013-09-29 10:38:00,81.0,39.7,30.14,West,267,0.0,5.0,23,0.00,,,0.00,763.0,meteohub,2013-09-29 17:38:00,
2013-09-29 10:43:00,81.3,39.9,30.13,WSW,241,1.0,4.0,23,0.00,,,0.00,773.0,meteohub,2013-09-29 17:43:00,
2013-09-29 10:48:00,81.9,39.2,30.13,NW,325,2.0,5.0,22,0.00,,,0.00,780.0,meteohub,2013-09-29 17:48:00,
2013-09-29 10:53:00,82.6,39.9,30.13,SW,233,2.0,5.0,22,0.00,,,0.00,789.0,meteohub,2013-09-29 17:53:00,
2013-09-29 10:58:00,83.1,40.3,30.13,NNW,331,2.0,5.0,22,0.00,,,0.00,800.0,meteohub,2013-09-29 17:58:00,
2013-09-29 11:03:00,83.5,39.4,30.13,NW,304,1.0,5.0,21,0.00,,,0.00,807.0,meteohub,2013-09-29 18:03:00,
2013-09-29 11:08:00,83.7,39.6,30.13,WSW,242,2.0,5.0,21,0.00,,,0.00,814.0,meteohub,2013-09-29 18:08:00,
2013-09-29 11:13:00,83.3,39.4,30.13,WSW,251,1.0,6.0,21,0.00,,,0.00,819.0,meteohub,2013-09-29 18:13:00,
2013-09-29 11:18:00,83.8,39.7,30.13,SW,232,3.0,6.0,21,0.00,,,0.00,823.0,meteohub,2013-09-29 18:18:00,
2013-09-29 11:23:00,84.0,39.9,30.13,South,186,1.0,6.0,21,0.00,,,0.00,830.0,meteohub,2013-09-29 18:23:00,
2013-09-29 11:28:00,84.4,40.1,30.13,West,265,1.0,6.0,21,0.00,,,0.00,833.0,meteohub,2013-09-29 18:28:00,
2013-09-29 11:33:00,84.6,40.3,30.13,SSW,207,2.0,8.0,21,0.00,,,0.00,840.0,meteohub,2013-09-29 18:33:00,
2013-09-29 11:39:00,84.4,41.4,30.12,SSW,211,2.0,8.0,22,0.00,,,0.00,844.0,meteohub,2013-09-29 18:39:00,
2013-09-29 11:44:00,84.9,40.6,30.12,WNW,295,3.0,8.0,21,0.00,,,0.00,846.0,meteohub,2013-09-29 18:44:00,
2013-09-29 11:49:00,85.3,39.7,30.12,West,268,8.0,8.0,20,0.00,,,0.00,849.0,meteohub,2013-09-29 18:49:00,
2013-09-29 11:54:00,85.5,39.7,30.12,SW,216,1.0,8.0,20,0.00,,,0.00,851.0,meteohub,2013-09-29 18:54:00,
2013-09-29 11:59:00,85.6,39.9,30.11,West,269,3.0,8.0,20,0.00,,,0.00,854.0,meteohub,2013-09-29 18:59:00,
2013-09-29 12:04:00,86.2,40.5,30.11,WSW,254,2.0,9.0,20,0.00,,,0.00,854.0,meteohub,2013-09-29 19:04:00,
2013-09-29 12:09:00,86.5,40.6,30.11,South,190,4.0,9.0,20,0.00,,,0.00,858.0,meteohub,2013-09-29 19:09:00,
2013-09-29 12:14:00,87.1,39.7,30.11,West,261,1.0,9.0,19,0.00,,,0.00,856.0,meteohub,2013-09-29 19:14:00,
2013-09-29 12:19:00,87.3,41.4,30.11,South,190,3.0,8.0,20,0.00,,,0.00,856.0,meteohub,2013-09-29 19:19:00,
2013-09-29 12:24:00,87.4,41.4,30.10,West,263,2.0,9.0,20,0.00,,,0.00,856.0,meteohub,2013-09-29 19:24:00,
2013-09-29 12:29:00,88.0,41.9,30.10,West,273,2.0,9.0,20,0.00,,,0.00,854.0,meteohub,2013-09-29 19:29:00,
2013-09-29 12:34:00,87.6,41.5,30.10,SW,227,2.0,9.0,20,0.00,,,0.00,854.0,meteohub,2013-09-29 19:34:00,
2013-09-29 12:39:00,87.4,41.4,30.09,WNW,290,4.0,8.0,20,0.00,,,0.00,851.0,meteohub,2013-09-29 19:39:00,
2013-09-29 12:44:00,87.6,41.5,30.09,WNW,302,1.0,8.0,20,0.00,,,0.00,853.0,meteohub,2013-09-29 19:44:00,
2013-09-29 12:48:00,88.0,41.9,30.09,SW,234,3.0,8.0,20,0.00,,,0.00,849.0,meteohub,2013-09-29 19:48:00,
2013-09-29 12:53:00,88.2,42.1,30.09,SSE,161,2.0,8.0,20,0.00,,,0.00,844.0,meteohub,2013-09-29 19:53:00,
2013-09-29 12:58:00,88.3,40.8,30.08,West,260,1.0,8.0,19,0.00,,,0.00,840.0,meteohub,2013-09-29 19:58:00,
2013-09-29 13:03:00,88.5,42.3,30.08,SW,227,5.0,7.0,20,0.00,,,0.00,840.0,meteohub,2013-09-29 20:03:00,
2013-09-29 13:08:00,88.5,41.0,30.07,SSW,211,4.0,7.0,19,0.00,,,0.00,835.0,meteohub,2013-09-29 20:08:00,
2013-09-29 13:13:00,88.3,40.8,30.07,East,101,2.0,9.0,19,0.00,,,0.00,830.0,meteohub,2013-09-29 20:13:00,
2013-09-29 13:18:00,88.3,40.8,30.07,NW,307,2.0,9.0,19,0.00,,,0.00,826.0,meteohub,2013-09-29 20:18:00,
2013-09-29 13:23:00,88.3,40.8,30.06,SW,226,3.0,9.0,19,0.00,,,0.00,826.0,meteohub,2013-09-29 20:23:00,
2013-09-29 13:28:00,88.3,39.4,30.06,WSW,238,5.0,6.0,18,0.00,,,0.00,821.0,meteohub,2013-09-29 20:28:00,
2013-09-29 13:33:00,88.3,40.8,30.06,WNW,284,2.0,6.0,19,0.00,,,0.00,809.0,meteohub,2013-09-29 20:33:00,
2013-09-29 13:38:00,88.7,41.2,30.06,NW,315,2.0,6.0,19,0.00,,,0.00,802.0,meteohub,2013-09-29 20:38:00,
2013-09-29 13:43:00,89.1,40.1,30.06,South,189,7.0,7.0,18,0.00,,,0.00,796.0,meteohub,2013-09-29 20:43:00,
2013-09-29 13:48:00,89.1,40.1,30.06,SSW,208,3.0,9.0,18,0.00,,,0.00,786.0,meteohub,2013-09-29 20:48:00,
2013-09-29 13:53:00,89.2,38.7,30.05,ENE,77,1.0,9.0,17,0.00,,,0.00,773.0,meteohub,2013-09-29 20:53:00,
2013-09-29 13:58:00,89.8,37.6,30.05,SSW,193,3.0,9.0,16,0.00,,,0.00,770.0,meteohub,2013-09-29 20:58:00,
2013-09-29 14:03:00,90.1,37.9,30.05,SE,138,1.0,8.0,16,0.00,,,0.00,759.0,meteohub,2013-09-29 21:03:00,
2013-09-29 14:08:00,90.5,39.7,30.05,SW,223,5.0,5.0,17,0.00,,,0.00,749.0,meteohub,2013-09-29 21:08:00,
2013-09-29 14:13:00,90.5,39.7,30.04,WSW,254,3.0,6.0,17,0.00,,,0.00,740.0,meteohub,2013-09-29 21:13:00,
2013-09-29 14:18:00,90.0,39.4,30.04,SSE,165,3.0,7.0,17,0.00,,,0.00,729.0,meteohub,2013-09-29 21:18:00,
2013-09-29 14:23:00,89.8,39.2,30.04,SSE,147,3.0,7.0,17,0.00,,,0.00,717.0,meteohub,2013-09-29 21:23:00,
2013-09-29 14:28:00,89.2,40.3,30.04,NW,317,3.0,7.0,18,0.00,,,0.00,707.0,meteohub,2013-09-29 21:28:00,
2013-09-29 14:33:00,89.8,40.6,30.04,NW,308,3.0,10.0,18,0.00,,,0.00,693.0,meteohub,2013-09-29 21:33:00,
2013-09-29 14:39:00,90.5,41.2,30.04,NW,307,5.0,10.0,18,0.00,,,0.00,680.0,meteohub,2013-09-29 21:39:00,
2013-09-29 14:44:00,90.3,39.6,30.04,West,266,3.0,8.0,17,0.00,,,0.00,666.0,meteohub,2013-09-29 21:44:00,
2013-09-29 14:49:00,90.7,39.9,30.04,WSW,257,5.0,7.0,17,0.00,,,0.00,654.0,meteohub,2013-09-29 21:49:00,
2013-09-29 14:54:00,90.9,40.1,30.04,WNW,295,2.0,7.0,17,0.00,,,0.00,640.0,meteohub,2013-09-29 21:54:00,
2013-09-29 14:59:00,90.3,39.6,30.03,NNW,341,3.0,7.0,17,0.00,,,0.00,631.0,meteohub,2013-09-29 21:59:00,
2013-09-29 15:04:00,90.9,40.1,30.03,NE,49,3.0,6.0,17,0.00,,,0.00,612.0,meteohub,2013-09-29 22:04:00,
2013-09-29 15:09:00,90.9,40.1,30.03,West,263,4.0,5.0,17,0.00,,,0.00,603.0,meteohub,2013-09-29 22:09:00,
2013-09-29 15:14:00,90.3,41.0,30.03,West,268,1.0,8.0,18,0.00,,,0.00,585.0,meteohub,2013-09-29 22:14:00,
2013-09-29 15:19:00,90.5,41.2,30.03,West,264,2.0,8.0,18,0.00,,,0.00,571.0,meteohub,2013-09-29 22:19:00,
2013-09-29 15:24:00,90.7,41.4,30.03,SW,233,6.0,8.0,18,0.00,,,0.00,557.0,meteohub,2013-09-29 22:24:00,
2013-09-29 15:29:00,90.1,41.0,30.03,WSW,238,6.0,7.0,18,0.00,,,0.00,541.0,meteohub,2013-09-29 22:29:00,
2013-09-29 15:34:00,90.0,40.8,30.02,WSW,247,3.0,7.0,18,0.00,,,0.00,526.0,meteohub,2013-09-29 22:34:00,
2013-09-29 15:39:00,90.0,40.8,30.02,SSW,202,3.0,8.0,18,0.00,,,0.00,508.0,meteohub,2013-09-29 22:39:00,
2013-09-29 15:44:00,90.0,40.8,30.02,West,273,4.0,8.0,18,0.00,,,0.00,494.0,meteohub,2013-09-29 22:44:00,
2013-09-29 15:49:00,89.8,40.6,30.02,SW,236,1.0,8.0,18,0.00,,,0.00,476.0,meteohub,2013-09-29 22:49:00,
2013-09-29 15:54:00,90.1,41.0,30.02,SW,226,4.0,8.0,18,0.00,,,0.00,457.0,meteohub,2013-09-29 22:54:00,
2013-09-29 15:59:00,90.5,39.7,30.02,NW,309,6.0,8.0,17,0.00,,,0.00,452.0,meteohub,2013-09-29 22:59:00,
2013-09-29 16:04:00,90.3,39.6,30.02,West,263,5.0,8.0,17,0.00,,,0.00,425.0,meteohub,2013-09-29 23:04:00,
2013-09-29 16:09:00,90.0,39.4,30.02,SW,217,3.0,8.0,17,0.00,,,0.00,406.0,meteohub,2013-09-29 23:09:00,
2013-09-29 16:15:00,89.8,40.6,30.02,West,277,2.0,8.0,18,0.00,,,0.00,388.0,meteohub,2013-09-29 23:15:00,
2013-09-29 16:20:00,90.0,40.8,30.02,WSW,252,3.0,7.0,18,0.00,,,0.00,373.0,meteohub,2013-09-29 23:20:00,
2013-09-29 16:25:00,90.1,39.4,30.01,West,267,5.0,7.0,17,0.00,,,0.00,355.0,meteohub,2013-09-29 23:25:00,
2013-09-29 16:30:00,90.0,39.4,30.01,West,261,5.0,7.0,17,0.00,,,0.00,336.0,meteohub,2013-09-29 23:30:00,
2013-09-29 16:35:00,89.4,38.8,30.02,West,267,4.0,8.0,17,0.00,,,0.00,318.0,meteohub,2013-09-29 23:35:00,
2013-09-29 16:40:00,89.4,38.8,30.02,WSW,244,2.0,8.0,17,0.00,,,0.00,299.0,meteohub,2013-09-29 23:40:00,
2013-09-29 16:45:00,89.6,39.0,30.01,NW,321,5.0,7.0,17,0.00,,,0.00,279.0,meteohub,2013-09-29 23:45:00,
2013-09-29 16:50:00,89.2,38.7,30.01,West,267,4.0,7.0,17,0.00,,,0.00,260.0,meteohub,2013-09-29 23:50:00,
2013-09-29 16:55:00,89.1,38.7,30.02,SSW,206,3.0,8.0,17,0.00,,,0.00,241.0,meteohub,2013-09-29 23:55:00,
2013-09-29 17:00:00,88.9,38.5,30.02,West,279,3.0,8.0,17,0.00,,,0.00,216.0,meteohub,2013-09-30 00:00:00,
2013-09-29 17:05:00,88.7,38.3,30.02,West,262,2.0,8.0,17,0.00,,,0.00,193.0,meteohub,2013-09-30 00:05:00,
2013-09-29 17:10:00,88.3,37.9,30.02,WNW,298,4.0,7.0,17,0.00,,,0.00,165.0,meteohub,2013-09-30 00:10:00,
2013-09-29 17:15:00,88.2,37.9,30.02,West,280,1.0,7.0,17,0.00,,,0.00,142.0,meteohub,2013-09-30 00:15:00,
2013-09-29 17:21:00,88.2,37.9,30.02,WSW,242,2.0,7.0,17,0.00,,,0.00,120.0,meteohub,2013-09-30 00:21:00,
2013-09-29 17:26:00,88.0,37.8,30.02,WSW,256,3.0,7.0,17,0.00,,,0.00,104.0,meteohub,2013-09-30 00:26:00,
2013-09-29 17:31:00,87.8,39.0,30.02,West,265,2.0,6.0,18,0.00,,,0.00,83.0,meteohub,2013-09-30 00:31:00,
2013-09-29 17:36:00,87.4,38.7,30.02,WNW,293,2.0,5.0,18,0.00,,,0.00,65.0,meteohub,2013-09-30 00:36:00,
2013-09-29 17:41:00,87.1,38.5,30.02,SW,223,4.0,6.0,18,0.00,,,0.00,49.0,meteohub,2013-09-30 00:41:00,
2013-09-29 17:46:00,86.7,38.1,30.02,West,265,1.0,6.0,18,0.00,,,0.00,35.0,meteohub,2013-09-30 00:46:00,
2013-09-29 17:51:00,86.4,37.9,30.02,West,281,3.0,6.0,18,0.00,,,0.00,23.0,meteohub,2013-09-30 00:51:00,
2013-09-29 17:56:00,86.0,37.6,30.02,WNW,300,2.0,6.0,18,0.00,,,0.00,16.0,meteohub,2013-09-30 00:56:00,
2013-09-29 18:01:00,85.6,38.7,30.02,West,262,1.0,6.0,19,0.00,,,0.00,12.0,meteohub,2013-09-30 01:01:00,
2013-09-29 18:06:00,84.9,38.1,30.02,West,269,1.0,5.0,19,0.00,,,0.00,9.0,meteohub,2013-09-30 01:06:00,
2013-09-29 18:11:00,84.4,37.6,30.02,West,269,0.0,5.0,19,0.00,,,0.00,5.0,meteohub,2013-09-30 01:11:00,
2013-09-29 18:16:00,83.7,38.3,30.02,West,266,1.0,4.0,20,0.00,,,0.00,0.0,meteohub,2013-09-30 01:16:00,
2013-09-29 18:21:00,83.1,37.9,30.02,West,266,1.0,3.0,20,0.00,,,0.00,0.0,meteohub,2013-09-30 01:21:00,
2013-09-29 18:26:00,82.6,37.4,30.02,West,267,1.0,4.0,20,0.00,,,0.00,0.0,meteohub,2013-09-30 01:26:00,
2013-09-29 18:31:00,82.0,38.3,30.02,West,263,2.0,4.0,21,0.00,,,0.00,0.0,meteohub,2013-09-30 01:31:00,
2013-09-29 18:36:00,81.7,37.9,30.02,West,263,0.0,5.0,21,0.00,,,0.00,0.0,meteohub,2013-09-30 01:36:00,
2013-09-29 18:41:00,81.1,37.6,30.02,West,263,1.0,5.0,21,0.00,,,0.00,0.0,meteohub,2013-09-30 01:41:00,
2013-09-29 18:46:00,80.8,37.2,30.02,WNW,302,1.0,2.0,21,0.00,,,0.00,0.0,meteohub,2013-09-30 01:46:00,
2013-09-29 18:51:00,80.2,37.9,30.02,WNW,302,0.0,4.0,22,0.00,,,0.00,0.0,meteohub,2013-09-30 01:51:00,
2013-09-29 18:56:00,79.9,37.6,30.02,WNW,302,0.0,4.0,22,0.00,,,0.00,0.0,meteohub,2013-09-30 01:56:00,
2013-09-29 19:01:00,79.5,37.4,30.03,WNW,302,1.0,2.0,22,0.00,,,0.00,0.0,meteohub,2013-09-30 02:01:00,
2013-09-29 19:07:00,79.2,37.0,30.03,West,280,2.0,2.0,22,0.00,,,0.00,0.0,meteohub,2013-09-30 02:07:00,
2013-09-29 19:12:00,78.8,37.9,30.03,West,279,1.0,3.0,23,0.00,,,0.00,0.0,meteohub,2013-09-30 02:12:00,
2013-09-29 19:17:00,78.4,37.6,30.03,West,279,1.0,3.0,23,0.00,,,0.00,0.0,meteohub,2013-09-30 02:17:00,
2013-09-29 19:22:00,78.3,37.4,30.03,West,279,0.0,3.0,23,0.00,,,0.00,0.0,meteohub,2013-09-30 02:22:00,
2013-09-29 19:27:00,77.7,38.1,30.03,West,279,0.0,2.0,24,0.00,,,0.00,0.0,meteohub,2013-09-30 02:27:00,
2013-09-29 19:32:00,77.5,37.9,30.03,West,276,3.0,3.0,24,0.00,,,0.00,0.0,meteohub,2013-09-30 02:32:00,
2013-09-29 19:37:00,77.4,37.8,30.03,West,271,1.0,3.0,24,0.00,,,0.00,0.0,meteohub,2013-09-30 02:37:00,
2013-09-29 19:42:00,76.8,38.3,30.03,West,272,0.0,3.0,25,0.00,,,0.00,0.0,meteohub,2013-09-30 02:42:00,
2013-09-29 19:47:00,76.6,38.1,30.03,West,272,1.0,3.0,25,0.00,,,0.00,0.0,meteohub,2013-09-30 02:47:00,
2013-09-29 19:52:00,76.1,37.8,30.04,NE,51,2.0,2.0,25,0.00,,,0.00,0.0,meteohub,2013-09-30 02:52:00,
2013-09-29 19:57:00,75.7,38.5,30.04,ENE,59,1.0,3.0,26,0.00,,,0.00,0.0,meteohub,2013-09-30 02:57:00,
2013-09-29 20:02:00,75.6,38.3,30.04,ENE,59,0.0,3.0,26,0.00,,,0.00,0.0,meteohub,2013-09-30 03:02:00,
2013-09-29 20:07:00,75.4,38.1,30.04,ENE,59,0.0,3.0,26,0.00,,,0.00,0.0,meteohub,2013-09-30 03:07:00,
2013-09-29 20:12:00,74.8,38.7,30.04,ENE,59,0.0,3.0,27,0.00,,,0.00,0.0,meteohub,2013-09-30 03:12:00,
2013-09-29 20:17:00,74.3,38.1,30.04,ENE,59,0.0,1.0,27,0.00,,,0.00,0.0,meteohub,2013-09-30 03:17:00,
2013-09-29 20:22:00,73.8,38.7,30.04,ENE,59,1.0,1.0,28,0.00,,,0.00,0.0,meteohub,2013-09-30 03:22:00,
2013-09-29 20:27:00,73.2,38.1,30.04,ENE,59,0.0,1.0,28,0.00,,,0.00,0.0,meteohub,2013-09-30 03:27:00,
2013-09-29 20:32:00,73.0,37.9,30.04,ENE,59,1.0,1.0,28,0.00,,,0.00,0.0,meteohub,2013-09-30 03:32:00,
2013-09-29 20:37:00,72.3,38.3,30.04,ENE,59,0.0,1.0,29,0.00,,,0.00,0.0,meteohub,2013-09-30 03:37:00,
2013-09-29 20:42:00,72.1,38.1,30.04,ENE,59,1.0,1.0,29,0.00,,,0.00,0.0,meteohub,2013-09-30 03:42:00,
2013-09-29 20:47:00,71.8,37.8,30.05,ENE,59,0.0,1.0,29,0.00,,,0.00,0.0,meteohub,2013-09-30 03:47:00,
2013-09-29 20:52:00,71.6,38.5,30.05,ENE,59,0.0,1.0,30,0.00,,,0.00,0.0,meteohub,2013-09-30 03:52:00,
2013-09-29 20:57:00,71.2,38.3,30.05,ENE,59,0.0,1.0,30,0.00,,,0.00,0.0,meteohub,2013-09-30 03:57:00,
2013-09-29 21:01:00,70.9,38.7,30.05,ENE,59,0.0,1.0,31,0.00,,,0.00,0.0,meteohub,2013-09-30 04:01:00,
2013-09-29 21:03:00,70.5,38.5,30.05,ENE,59,0.0,1.0,31,0.00,,,0.00,0.0,meteohub,2013-09-30 04:03:00,
2013-09-29 21:08:00,70.2,38.8,30.05,ENE,59,0.0,1.0,32,0.00,,,0.00,0.0,meteohub,2013-09-30 04:08:00,
2013-09-29 21:13:00,69.6,38.5,30.05,ENE,59,0.0,1.0,32,0.00,,,0.00,0.0,meteohub,2013-09-30 04:13:00,
2013-09-29 21:18:00,69.3,38.8,30.05,ENE,59,1.0,1.0,33,0.00,,,0.00,0.0,meteohub,2013-09-30 04:18:00,
2013-09-29 21:23:00,68.5,38.3,30.05,ENE,59,0.0,1.0,33,0.00,,,0.00,0.0,meteohub,2013-09-30 04:23:00,
2013-09-29 21:28:00,68.2,38.7,30.05,ENE,59,0.0,2.0,34,0.00,,,0.00,0.0,meteohub,2013-09-30 04:28:00,
2013-09-29 21:33:00,67.8,38.5,30.05,ENE,59,0.0,2.0,34,0.00,,,0.00,0.0,meteohub,2013-09-30 04:33:00,
2013-09-29 21:38:00,67.6,38.3,30.05,ENE,59,0.0,2.0,34,0.00,,,0.00,0.0,meteohub,2013-09-30 04:38:00,
2013-09-29 21:43:00,67.5,38.8,30.05,ENE,59,0.0,2.0,35,0.00,,,0.00,0.0,meteohub,2013-09-30 04:43:00,
2013-09-29 21:48:00,67.3,38.7,30.05,ENE,59,0.0,1.0,35,0.00,,,0.00,0.0,meteohub,2013-09-30 04:48:00,
2013-09-29 21:53:00,66.9,38.3,30.06,ENE,59,0.0,1.0,35,0.00,,,0.00,0.0,meteohub,2013-09-30 04:53:00,
2013-09-29 21:58:00,66.6,38.8,30.06,ENE,59,0.0,1.0,36,0.00,,,0.00,0.0,meteohub,2013-09-30 04:58:00,
2013-09-29 22:03:00,66.2,39.2,30.06,ENE,59,0.0,0.0,37,0.00,,,0.00,0.0,meteohub,2013-09-30 05:03:00,
2013-09-29 22:08:00,65.8,38.8,30.05,ENE,59,0.0,1.0,37,0.00,,,0.00,0.0,meteohub,2013-09-30 05:08:00,
2013-09-29 22:13:00,65.5,38.5,30.06,ENE,59,0.0,1.0,37,0.00,,,0.00,0.0,meteohub,2013-09-30 05:13:00,
2013-09-29 22:18:00,65.1,38.8,30.06,ENE,59,0.0,1.0,38,0.00,,,0.00,0.0,meteohub,2013-09-30 05:18:00,
2013-09-29 22:23:00,65.1,38.8,30.05,ENE,59,1.0,1.0,38,0.00,,,0.00,0.0,meteohub,2013-09-30 05:23:00,
2013-09-29 22:28:00,65.8,38.1,30.05,ENE,59,2.0,2.0,36,0.00,,,0.00,0.0,meteohub,2013-09-30 05:28:00,
2013-09-29 22:33:00,66.9,38.3,30.05,ENE,62,1.0,2.0,35,0.00,,,0.00,0.0,meteohub,2013-09-30 05:33:00,
2013-09-29 22:38:00,68.0,38.7,30.05,ENE,62,0.0,3.0,34,0.00,,,0.00,0.0,meteohub,2013-09-30 05:38:00,
2013-09-29 22:43:00,68.4,38.8,30.05,ENE,62,0.0,3.0,34,0.00,,,0.00,0.0,meteohub,2013-09-30 05:43:00,
2013-09-29 22:48:00,68.2,38.7,30.05,ENE,62,0.0,3.0,34,0.00,,,0.00,0.0,meteohub,2013-09-30 05:48:00,
2013-09-29 22:53:00,67.8,38.5,30.05,ENE,62,1.0,1.0,34,0.00,,,0.00,0.0,meteohub,2013-09-30 05:53:00,
2013-09-29 22:58:00,67.3,38.7,30.05,ENE,62,1.0,1.0,35,0.00,,,0.00,0.0,meteohub,2013-09-30 05:58:00,
2013-09-29 23:03:00,66.9,38.3,30.05,ENE,62,0.0,1.0,35,0.00,,,0.00,0.0,meteohub,2013-09-30 06:03:00,
2013-09-29 23:08:00,66.4,38.7,30.05,ENE,62,1.0,1.0,36,0.00,,,0.00,0.0,meteohub,2013-09-30 06:08:00,
2013-09-29 23:13:00,66.0,39.0,30.05,ENE,62,0.0,1.0,37,0.00,,,0.00,0.0,meteohub,2013-09-30 06:13:00,
2013-09-29 23:18:00,65.5,38.5,30.05,ENE,62,1.0,1.0,37,0.00,,,0.00,0.0,meteohub,2013-09-30 06:18:00,
2013-09-29 23:23:00,64.9,38.7,30.05,ENE,62,0.0,1.0,38,0.00,,,0.00,0.0,meteohub,2013-09-30 06:23:00,
2013-09-29 23:28:00,64.6,38.5,30.05,ENE,61,1.0,1.0,38,0.00,,,0.00,0.0,meteohub,2013-09-30 06:28:00,
2013-09-29 23:33:00,64.6,38.5,30.05,ENE,61,0.0,3.0,38,0.00,,,0.00,0.0,meteohub,2013-09-30 06:33:00,
2013-09-29 23:39:00,64.9,38.1,30.05,NE,56,2.0,3.0,37,0.00,,,0.00,0.0,meteohub,2013-09-30 06:39:00,
2013-09-29 23:44:00,65.8,37.4,30.05,NNW,329,1.0,4.0,35,0.00,,,0.00,0.0,meteohub,2013-09-30 06:44:00,
2013-09-29 23:49:00,66.9,37.6,30.05,North,355,3.0,4.0,34,0.00,,,0.00,0.0,meteohub,2013-09-30 06:49:00,
2013-09-29 23:54:00,67.3,37.9,30.05,North,355,0.0,4.0,34,0.00,,,0.00,0.0,meteohub,2013-09-30 06:54:00,
2013-09-29 23:59:00,67.1,37.8,30.05,North,355,1.0,4.0,34,0.00,,,0.00,0.0,meteohub,2013-09-30 06:59:00,